Location: Newark
(50.4348°N, 30.5552°E)
Time: 13:08:28
(UTC+00:00)

Altair - Pass Details

Date: 26 January 2020
Orbit: 1502 x 1682 km, 47.2° (Epoch: 25 February)

Event Time Altitude Azimuth Distance (km) Brightness Sun altitude
Rises 09:30:35 0° 268° (W) 4,922 10.1 20.2°
Reaches altitude 10° 09:33:44 10° 267° (W) 3,942 9.6 20.3°
Maximum altitude 09:43:52 75° 185° (S) 1,732 8.4 20.5°
Drops below altitude 10° 09:53:54 10° 103° (ESE) 3,902 9.9 20.7°
Sets 09:57:00 0° 102° (ESE) 4,870 10.3 20.7°
